Flag for U.S.A. Weather past 2 weeks in Kalispell, Montana, U.S.A.

Now
42 °F

Overcast.


Feels Like: 37 °F
Forecast: 38 / 57 °F
Wind: 9 mph from South

Location: Kalispell - Glacier Park International


UV Index: 0 (Low)

Visibility: 10 mi


Pressure: 29.94 "Hg

Humidity: 73%

Dew point: 34 °F

Location of KalispellLocation

Historic Weather in Kalispell

°F

Kalispell temperature yesterday

Maximum temperature yesterday: 50 °F (at 2:55 PM)
Minimum temperature yesterday: 27 °F (at 3:55 AM)
Average temperature yesterday: 39 °F

Past Weeks' High & Low Weather Summary

 TemperatureHumidityPressure
High70 °F (Apr 8, 4:55 PM)96% (Apr 15, 11:55 PM)30.45 "Hg (Apr 15, 11:55 PM)
Low20 °F (Apr 14, 2:55 AM)18% (Apr 13, 3:55 PM)29.76 "Hg (Apr 2, 3:55 AM)
Average42 °F58%30.01 "Hg
* Reported Apr 2 2:55 AM — Apr 17 2:55 AM, Kalispell, Weather by CustomWeather, © 2014

Note: Actual official high and low records may vary slightly from our data, if they occured in-between our weather recording intervals... More about our weather records

Advertising

Historic Weather Conditions — Data for Previous 24 hours

 ConditionsComfort  
Time TempWeatherWind HumidityBarometerVisibility
2:55 AM
Apr 17
42 °FOvercast.7 mph73%29.96 "Hg10 mi
1:55 AM41 °FOvercast.7 mph76%29.97 "Hg10 mi
12:55 AM42 °FOvercast.8 mph73%29.98 "Hg10 mi
11:55 PM
Apr 16
43 °FOvercast.8 mph71%29.98 "Hg10 mi
10:55 PM43 °FOvercast.8 mph71%30.00 "Hg10 mi
9:55 PM43 °FOvercast.13 mph71%30.01 "Hg10 mi
8:55 PM42 °FOvercast.14 mph73%30.02 "Hg10 mi
7:55 PM42 °FOvercast.16 mph73%30.03 "Hg10 mi
6:55 PM44 °FMostly cloudy.18 mph71%30.03 "Hg10 mi
5:55 PM46 °FOvercast.13 mph61%30.01 "Hg10 mi
4:55 PM49 °FOvercast.14 mph46%30.01 "Hg10 mi
3:55 PM47 °FOvercast.10 mph54%30.01 "Hg10 mi
2:55 PM50 °FMostly cloudy.9 mph41%30.00 "Hg10 mi
1:55 PM49 °FScattered clouds.8 mph48%30.01 "Hg10 mi
12:55 PM49 °FOvercast.9 mph46%30.00 "Hg10 mi
11:55 AM48 °FPartly sunny.10 mph50%30.00 "Hg10 mi
10:55 AM41 °FPartly sunny.8 mph82%30.02 "Hg10 mi
9:55 AM37 °FPartly sunny.No wind93%30.03 "Hg10 mi
8:55 AM32 °FIce fog.No wind96%30.04 "Hg5 mi
7:55 AM28 °FIce fog.No wind96%30.03 "Hg0 mi
6:55 AM28 °FIce fog.No wind96%30.02 "Hg0 mi
5:55 AM28 °FIce fog.No wind96%30.01 "Hg0 mi
4:55 AM29 °FIce fog.No wind96%30.00 "Hg0 mi
4:03 AM27 °FIce fog.No wind96%29.94 "Hg2 mi
Weather by CustomWeather, © 2014

See weather overview